This is the latest recevied weather packets stored in our database for station/object XE1GMR. If no packets are shown the sender has not sent any weather packets the latest 10 day(s).
| Time | Temp. | Humidity | Pressure | Rain* | Wind** | Luminosity | Snow |
|---|---|---|---|---|---|---|---|
| 1777488818 | 31.67° C | 15% | 1121.3 hPa | 0 mm | - | 732 W/m² | - |
| 1777488514 | 31.11° C | 15% | 1121.2 hPa | 0 mm | - | 766 W/m² | - |
| 1777488212 | 31.11° C | 16% | 1121.5 hPa | 0 mm | - | 769 W/m² | - |
| 1777487910 | 30.56° C | 15% | 1121.6 hPa | 0 mm | - | 767 W/m² | - |
| 1777487607 | 31.11° C | 14% | 1121.6 hPa | 0 mm | - | 780 W/m² | - |
| 1777487305 | 31.11° C | 15% | 1121.7 hPa | 0 mm | - | 796 W/m² | - |
| 1777487002 | 31.11° C | 15% | 1121.8 hPa | 0 mm | - | 802 W/m² | - |
| 1777486698 | 30.56° C | 16% | 1121.8 hPa | 0 mm | - | 797 W/m² | - |
| 1777486396 | 31.11° C | 16% | 1121.8 hPa | 0 mm | - | 795 W/m² | - |
| 1777486093 | 30.56° C | 16% | 1122 hPa | 0 mm | - | 783 W/m² | - |
| 1777485789 | 30.56° C | 16% | 1122 hPa | 0 mm | - | 796 W/m² | - |
| 1777485485 | 30.56° C | 17% | 1122.1 hPa | 0 mm | - | 784 W/m² | - |
| 1777485181 | 30° C | 17% | 1122.1 hPa | 0 mm | - | 785 W/m² | - |
| 1777484877 | 29.44° C | 18% | 1122.1 hPa | 0 mm | - | 785 W/m² | - |
| 1777484575 | 28.89° C | 18% | 1122.4 hPa | 0 mm | - | 790 W/m² | - |
| 1777484271 | 29.44° C | 19% | 1122.2 hPa | 0 mm | - | 789 W/m² | - |
| 1777483967 | 30° C | 19% | 1122.6 hPa | 0 mm | - | 793 W/m² | - |
| 1777483664 | 29.44° C | 20% | 1122.2 hPa | 0 mm | - | 802 W/m² | - |
| 1777483359 | 28.89° C | 20% | 1122.6 hPa | 0 mm | - | 818 W/m² | - |
| 1777483055 | 28.33° C | 19% | 1122.6 hPa | 0 mm | - | 802 W/m² | - |
| 1777482752 | 28.33° C | 21% | 1122.5 hPa | 0 mm | - | 786 W/m² | - |
| 1777482448 | 29.44° C | 21% | 1122.7 hPa | 0 mm | - | 796 W/m² | - |
| 1777482146 | 28.89° C | 21% | 1122.9 hPa | 0 mm | - | 820 W/m² | - |
| 1777481843 | 28.89° C | 22% | 1122.8 hPa | 0 mm | - | 826 W/m² | - |
| 1777481540 | 28.33° C | 22% | 1123 hPa | 0 mm | - | 833 W/m² | - |
* Rain latest hour (hover to see other rain measurements)
** Current wind speed in m/s (hover to see current wind gust speed)